Retour au catalogue

ECHO 1 DEB

METAL OBJ

ActifLEO
NORAD 51·DEBRIS·🇺🇸 United States

Lancé Aug 12, 1960 depuis Cape Canaveral Space Force Station

Loading…

Prochains Passages (prochaines 24 heures)

TLE

FraisSource: Space-Track

Époque: Sep 14, 2026, 08:35 UTC

1 00051U 60009C   26257.35776023 -.00000024  00000-0  60208-3 0  9992
2 00051  47.2110 133.4284 0108647 101.1935 260.1089 12.18385292942040

Suivez ECHO 1 DEB en temps réel avec AllMySat

Download on the App Store